This is the latest recevied weather packets stored in our database for station/object KQ4EHY-1. If no packets are shown the sender has not sent any weather packets the latest 10 day(s).
| Time | Temp. | Humidity | Pressure | Rain* | Wind** | Luminosity | Snow |
|---|---|---|---|---|---|---|---|
| 1778188389 | 23.33° C | 68% | 1006.3 hPa | 0 mm | 0.45 m/s, 154° | - | - |
| 1778188329 | 23.33° C | 68% | 1006.3 hPa | 0 mm | 0.45 m/s, 154° | - | - |
| 1778188269 | 23.33° C | 68% | 1006.3 hPa | 0 mm | 0.45 m/s, 154° | - | - |
| 1778188209 | 23.33° C | 65% | 1006.4 hPa | 0 mm | 0.89 m/s, 330° | - | - |
| 1778188149 | 23.33° C | 65% | 1006.4 hPa | 0 mm | 0.89 m/s, 330° | - | - |
| 1778188089 | 23.33° C | 65% | 1006.4 hPa | 0 mm | 0.89 m/s, 330° | - | - |
| 1778188029 | 23.33° C | 65% | 1006.4 hPa | 0 mm | 0.89 m/s, 330° | - | - |
| 1778187969 | 23.33° C | 65% | 1006.4 hPa | 0 mm | 0.89 m/s, 330° | - | - |
| 1778187909 | 23.33° C | 70% | 1006 hPa | 0 mm | 0.45 m/s, 341° | - | - |
| 1778187849 | 23.33° C | 70% | 1006 hPa | 0 mm | 0.45 m/s, 341° | - | - |
| 1778187789 | 23.33° C | 70% | 1006 hPa | 0 mm | 0.45 m/s, 341° | - | - |
| 1778187729 | 23.33° C | 70% | 1006 hPa | 0 mm | 0.45 m/s, 341° | - | - |
| 1778187669 | 23.33° C | 70% | 1006 hPa | 0 mm | 0.45 m/s, 341° | - | - |
| 1778187609 | 23.33° C | 65% | 1006 hPa | 0 mm | 0.89 m/s, 137° | - | - |
| 1778187550 | 23.33° C | 65% | 1006 hPa | 0 mm | 0.89 m/s, 137° | - | - |
| 1778187489 | 23.33° C | 65% | 1006 hPa | 0 mm | 0.89 m/s, 137° | - | - |
| 1778187429 | 23.33° C | 65% | 1006 hPa | 0 mm | 0.89 m/s, 137° | - | - |
| 1778187370 | 23.33° C | 65% | 1006 hPa | 0 mm | 0.89 m/s, 137° | - | - |
| 1778187309 | 23.89° C | 66% | 1005.9 hPa | 0 mm | 0.45 m/s, 190° | - | - |
| 1778187249 | 23.89° C | 66% | 1005.9 hPa | 0 mm | 0.45 m/s, 190° | - | - |
| 1778187189 | 23.89° C | 66% | 1005.9 hPa | 0 mm | 0.45 m/s, 190° | - | - |
| 1778187129 | 23.89° C | 66% | 1005.9 hPa | 0 mm | 0.45 m/s, 190° | - | - |
| 1778187069 | 23.89° C | 66% | 1005.9 hPa | 0 mm | 0.45 m/s, 190° | - | - |
| 1778187009 | 23.89° C | 66% | 1005.9 hPa | 0 mm | 0.45 m/s, 190° | - | - |
| 1778186949 | 23.89° C | 64% | 1006 hPa | 0 mm | 0.89 m/s, 335° | - | - |
* Rain latest hour (hover to see other rain measurements)
** Current wind speed in m/s (hover to see current wind gust speed)